Overview Statistics Trail Chart Weather Telemetry Raw packets
 

This is the latest recevied weather packets stored in our database for station/object WA1TYB-13. If no packets are shown the sender has not sent any weather packets the latest 10 day(s).

<< 10 11 12 13 14 15 16 >>
Time Temp. Humidity Pressure Rain* Wind** Luminosity Snow
1788542902 20° C 35% 1013.2 hPa 0 mm - 567 W/m² -
1788542601 19.44° C 35% 1013.3 hPa 0 mm - 547 W/m² -
1788542296 20° C 36% 1013.2 hPa 0 mm - 545 W/m² -
1788541991 19.44° C 35% 1013.2 hPa 0 mm - 537 W/m² -
1788541688 19.44° C 38% 1013.2 hPa 0 mm - 545 W/m² -
1788541383 19.44° C 36% 1013.1 hPa 0 mm - 520 W/m² -
1788541082 19.44° C 38% 1013.3 hPa 0 mm - 534 W/m² -
1788540776 19.44° C 36% 1013.3 hPa 0 mm - 526 W/m² -
1788540470 18.89° C 38% 1013 hPa 0 mm - 518 W/m² -
1788540166 18.89° C 40% 1013.4 hPa 0 mm - 487 W/m² -
1788539862 18.33° C 40% 1013.3 hPa 0 mm - 489 W/m² -
1788539557 18.33° C 39% 1013.6 hPa 0 mm - 484 W/m² -
1788539256 18.33° C 39% 1013.6 hPa 0 mm - 480 W/m² -
1788538951 18.33° C 39% 1013.6 hPa 0 mm - 476 W/m² -
1788538647 18.33° C 40% 1013.4 hPa 0 mm - 448 W/m² -
1788538341 18.33° C 39% 1013.6 hPa 0 mm - 436 W/m² -
1788538037 17.78° C 40% 1013.5 hPa 0 mm - 397 W/m² -
1788537733 17.78° C 41% 1013.5 hPa 0 mm - 388 W/m² -
1788537432 17.78° C 43% 1013.3 hPa 0 mm - 370 W/m² -
1788537131 17.78° C 42% 1013.2 hPa 0 mm - 371 W/m² -
1788536830 17.22° C 41% 1013.5 hPa 0 mm - 340 W/m² -
1788536525 17.22° C 41% 1013.3 hPa 0 mm - 325 W/m² -
1788536220 17.22° C 42% 1013.3 hPa 0 mm - 284 W/m² -
1788535916 17.22° C 43% 1013.3 hPa 0 mm - 258 W/m² -
1788535612 17.22° C 45% 1013.3 hPa 0 mm - 260 W/m² -

* Rain latest hour (hover to see other rain measurements)
** Current wind speed in m/s (hover to see current wind gust speed)